Leadville, CO

6:20 AM MDT on August 19, 2017 (GMT -0600)
Lake County

Weather History for KLXV - October, 2012

Change the Weather History Date:

Wednesday, October 17, 2012

  Actual Average Record
Temperature  
Mean Temperature 32 °F -  
Max Temperature 39 °F 49 °F 63 °F (1991)
Min Temperature 25 °F 23 °F 3 °F (1999)
Degree Days  
Heating Degree Days 33 29  
Month to date heating degree days 428 448  
Since 1 July heating degree days 1534 1746  
Cooling Degree Days 0 0  
Month to date cooling degree days 0 0  
Year to date cooling degree days 0 0  
Moisture  
Dew Point 11 °F    
Average Humidity 44    
Maximum Humidity 70    
Minimum Humidity 18    
Precipitation  
Precipitation T in 0.03 in 0.24 in (2011)
Month to date precipitation 0.59 0.50  
Year to date precipitation 9.98 10.53  
Sea Level Pressure  
Sea Level Pressure 29.80 in    
Wind  
Wind Speed 19 mph (NW)    
Max Wind Speed 35 mph    
Max Gust Speed 49 mph    
Visibility 9 miles    
Events Snow    
T = Trace of Precipitation, MM = Missing Value Source: NWS Daily Summary

Daily Weather History Graph

Daily Weather History Graph

Search for Another Location

Airport or City:

Trip Planner

Search our weather history database for the weather conditions in past years. The results will help you decide how hot, cold, wet, or windy it might be!

Date:

Astronomy

Oct. 17, 2012 Rise Set
Actual Time 7:17 AM MDT 6:22 PM MDT
Civil Twilight 6:50 AM MDT 6:49 PM MDT
Nautical Twilight 6:19 AM MDT 7:20 PM MDT
Astronomical Twilight 5:48 AM MDT 7:51 PM MDT
Moon 9:53 AM MDT (10/17) 8:02 PM MDT (10/17)
Length of Visible Light 11h 59m
Length of Day
11h 05m
Waxing Crescent, 7% of the Moon is Illuminated
Oct 17
Waxing Crescent
Oct 21
First Quarter
Oct 29
Full
Nov 6
Last Quarter
Nov 13
New

Hourly Weather History & Observations

Time (MDT) Temp. Windchill Dew Point Humidity Pressure Visibility Wind Dir Wind Speed Gust Speed Precip Events Conditions
12:14 AM 33.8 °F 23.5 °F 32.0 °F 93% 29.94 in 2.5 mi North 16.1 mph 23.0 mph 0.02 in Snow Light Snow
12:25 AM 33.8 °F 24.8 °F 32.0 °F 93% 29.94 in 3.0 mi NNW 12.7 mph 21.9 mph 0.03 in Snow Light Snow
12:53 AM 35.1 °F 23.3 °F 32.0 °F 89% 29.59 in 7.0 mi NW 23.0 mph 31.1 mph 0.06 in Snow Light Snow
1:04 AM 37.4 °F 26.9 °F 28.4 °F 70% 29.96 in 9.0 mi NW 20.7 mph 42.6 mph 0.00 in   Overcast
1:53 AM 36.0 °F 23.5 °F 26.1 °F 67% 29.57 in 10.0 mi WNW 27.6 mph 36.8 mph 0.00 in   Mostly Cloudy
2:53 AM 35.1 °F 22.2 °F 21.9 °F 59% 29.55 in 10.0 mi WNW 27.6 mph 35.7 mph N/A   Partly Cloudy
3:53 AM 33.1 °F 21.2 °F 18.0 °F 54% 29.57 in 10.0 mi NW 20.7 mph 28.8 mph N/A   Clear
4:53 AM 32.0 °F 21.6 °F 12.0 °F 44% 29.59 in 10.0 mi NW 15.0 mph 31.1 mph N/A   Clear
5:53 AM 30.0 °F 20.0 °F 9.0 °F 41% 29.63 in 10.0 mi WNW 12.7 mph 27.6 mph N/A   Clear
6:53 AM 28.0 °F 17.5 °F 7.0 °F 41% 29.66 in 10.0 mi WNW 12.7 mph 24.2 mph N/A   Clear
7:53 AM 26.1 °F 12.3 °F 10.9 °F 53% 29.72 in 10.0 mi WNW 19.6 mph 26.5 mph N/A   Clear
8:53 AM 26.1 °F 11.0 °F 10.0 °F 51% 29.74 in 10.0 mi West 24.2 mph 33.4 mph N/A   Partly Cloudy
11:53 AM 32.0 °F 19.8 °F 6.1 °F 34% 29.82 in 10.0 mi WNW 20.7 mph 27.6 mph N/A   Clear
2:53 PM 37.0 °F 25.1 °F -2.0 °F 19% 29.77 in 10.0 mi WNW 26.5 mph 35.7 mph N/A   Clear
3:53 PM 37.9 °F 27.1 °F -2.9 °F 18% 29.80 in 10.0 mi WNW 23.0 mph 39.1 mph N/A   Clear
4:53 PM 37.9 °F 26.6 °F -2.0 °F 18% 29.82 in 10.0 mi WNW 25.3 mph 35.7 mph N/A   Clear
5:53 PM 36.0 °F 25.3 °F -4.0 °F 18% 29.88 in 10.0 mi WNW 19.6 mph 40.3 mph N/A   Clear
6:53 PM 34.0 °F 23.4 °F -0.0 °F 24% 29.92 in 10.0 mi NW 17.3 mph 24.2 mph N/A   Clear
7:53 PM 33.1 °F 24.4 °F 3.0 °F 28% 29.95 in 10.0 mi North 11.5 mph 17.3 mph N/A   Clear
8:53 PM 32.0 °F 23.6 °F 3.9 °F 31% 29.97 in 10.0 mi NNW 10.4 mph - N/A   Clear
9:53 PM 32.0 °F 23.6 °F 3.9 °F 31% 29.99 in 10.0 mi North 10.4 mph 20.7 mph N/A   Clear
10:53 PM 32.0 °F 20.8 °F 3.9 °F 31% 29.98 in 10.0 mi North 17.3 mph 27.6 mph N/A   Clear
11:53 PM 30.9 °F 20.7 °F 3.0 °F 31% 29.96 in 10.0 mi NNW 13.8 mph 20.7 mph N/A   Clear